Date String (YYYY-MM-DD hh:mm:ss) UTC,Instrument flags,Ambient pressure (hPa),Sample flow (lpm),Bypass flow (lpm),Sample temperature (°C),Ambient temperature (°C),ASC tube jacket temperature (°C),LED temperature (°C),Box temperature (°C),Sample RH (%),Span deviation,Mass concentration (μg/m³),Mass concentration (μg/m³),Mass concentration (μg/m³)
DateTimeUTC,F1_M11,P_M11,Q1_M11,Q2_M11,T1_M11,T2_M11,T3_M11,T4_M11,T5_M11,U1_M11,ZSPAN_M11,X0_M11,X2_M11,X1_M11
2022-04-19 07:00:00,,0822.3,4.99,0.00,28.1,27.1,00.0,37.0,29.9,10.4,0000.0,0030.52,0007.89,0005.34
2022-04-19 07:01:00,,0822.3,4.99,0.00,28.1,27.1,00.0,37.0,29.9,10.4,0000.0,0030.99,0007.91,0005.24
2022-04-19 07:02:00,,0822.2,4.99,0.00,28.1,27.1,00.0,37.0,29.9,10.5,0000.0,0030.64,0007.78,0005.16
2022-04-19 07:03:00,,0822.2,4.99,0.00,28.1,27.1,00.0,37.0,29.9,10.5,0000.0,0028.12,0007.67,0005.07
2022-04-19 07:04:00,,0822.2,5.01,0.00,28.1,27.1,00.0,37.0,29.9,10.5,0000.0,0029.10,0007.69,0004.96
2022-04-19 07:05:00,,0822.2,5.00,0.00,28.1,27.1,00.0,37.0,29.9,10.5,0000.3,0030.17,0007.82,0004.86
2022-04-19 07:06:00,,0822.3,5.00,0.00,28.1,27.1,00.0,37.0,29.8,10.5,0000.0,0031.21,0007.82,0004.74
2022-04-19 07:07:00,,0822.3,5.00,0.00,28.1,27.1,00.0,37.0,29.8,10.6,0000.0,0031.01,0007.83,0004.61
2022-04-19 07:08:00,,0822.3,5.00,0.00,28.1,27.1,00.0,37.0,29.8,10.6,0000.0,0031.29,0007.84,0004.49
2022-04-19 07:09:00,,0822.4,5.00,0.00,28.0,27.0,00.0,37.0,29.8,10.6,0000.0,0031.61,0007.92,0004.44
2022-04-19 07:10:00,,0822.4,5.00,0.00,28.0,27.0,00.0,37.0,29.8,10.6,0000.0,0032.48,0007.99,0004.35
2022-04-19 07:11:00,,0822.3,5.00,0.00,28.0,27.0,00.0,37.0,29.8,10.6,0000.0,0034.06,0008.09,0004.32
2022-04-19 07:12:00,,0822.3,5.00,0.00,28.0,27.0,00.0,37.0,29.8,10.5,0000.0,0035.20,0008.28,0004.31
2022-04-19 07:13:00,,0822.3,5.01,0.00,28.0,27.0,00.0,37.0,29.8,10.5,0000.0,0036.01,0008.44,0004.29
2022-04-19 07:14:00,,0822.2,4.99,0.00,28.0,27.0,00.0,37.0,29.8,10.5,0000.0,0036.24,0008.56,0004.28
2022-04-19 07:15:00,,0822.2,4.99,0.00,28.0,27.0,00.0,37.0,29.8,10.5,0000.0,0035.45,0008.67,0004.26
2022-04-19 07:16:00,,0822.2,5.00,0.00,28.0,27.0,00.0,37.0,29.8,10.5,0000.0,0035.86,0008.62,0004.25
2022-04-19 07:17:00,,0822.1,5.02,0.00,28.0,27.0,00.0,37.0,29.8,10.6,0000.0,0036.16,0008.64,0004.25
2022-04-19 07:18:00,,0822.1,5.00,0.00,28.0,27.0,00.0,36.9,29.8,10.7,0000.0,0035.88,0008.62,0004.26
2022-04-19 07:19:00,,0822.2,5.00,0.00,28.0,27.0,00.0,36.9,29.8,10.8,0000.0,0034.98,0008.61,0004.28
2022-04-19 07:20:00,,0822.2,5.02,0.00,28.0,27.0,00.0,36.9,29.8,10.7,0000.0,0035.04,0008.53,0004.28
2022-04-19 07:21:00,,0822.1,5.00,0.00,28.0,27.0,00.0,36.9,29.8,11.0,0000.0,0034.97,0008.52,0004.31
2022-04-19 07:22:00,,0822.1,4.99,0.00,28.0,27.0,00.0,36.9,29.8,11.1,0000.0,0034.72,0008.51,0004.34
2022-04-19 07:23:00,,0822.1,4.99,0.00,28.0,27.0,00.0,36.9,29.8,11.1,-000.8,0032.56,0008.29,0004.37
2022-04-19 07:24:00,,0822.2,5.00,0.00,28.0,27.0,00.0,36.9,29.7,11.1,-000.9,0031.65,0008.18,0004.40
2022-04-19 07:25:00,,0822.2,5.01,0.00,28.0,27.0,00.0,36.9,29.7,10.9,-000.3,0032.48,0008.09,0004.42
2022-04-19 07:26:00,,0822.2,5.01,0.00,28.0,27.0,00.0,36.9,29.7,10.8,-000.7,0031.45,0007.95,0004.45
2022-04-19 07:27:00,,0822.1,5.00,0.00,28.0,27.0,00.0,36.9,29.7,10.8,-000.2,0031.44,0008.02,0004.47
2022-04-19 07:28:00,,0822.1,4.99,0.00,28.0,26.9,00.0,36.9,29.7,10.7,0000.2,0031.31,0008.05,0004.49
2022-04-19 07:29:00,,0822.1,5.00,0.00,28.0,26.9,00.0,36.9,29.7,10.6,0000.4,0031.48,0008.01,0004.49
2022-04-19 07:30:00,,0822.0,5.00,0.00,28.0,26.9,00.0,36.9,29.7,10.6,0000.0,0031.85,0007.93,0004.47
2022-04-19 07:31:00,,0822.1,5.02,0.00,27.9,26.9,00.0,36.9,29.7,10.5,0000.0,0031.00,0007.90,0004.46
2022-04-19 07:32:00,,0822.1,4.99,0.00,27.9,26.9,00.0,36.9,29.7,10.5,0000.0,0030.08,0007.77,0004.43
2022-04-19 07:33:00,,0822.1,4.99,0.00,27.9,26.9,00.0,36.9,29.7,10.5,0000.0,0030.08,0007.79,0004.41
2022-04-19 07:34:00,,0822.1,5.02,0.00,27.9,26.9,00.0,36.9,29.7,10.5,0000.0,0031.88,0007.78,0004.36
2022-04-19 07:35:00,,0822.1,5.00,0.00,27.9,26.9,00.0,36.9,29.7,10.5,0000.0,0031.06,0007.74,0004.34
2022-04-19 07:36:00,,0822.1,4.98,0.00,27.9,26.9,00.0,36.9,29.7,10.5,0000.0,0030.26,0007.76,0004.31
2022-04-19 07:37:00,,0822.1,4.99,0.00,27.9,26.9,00.0,36.9,29.7,10.4,0000.0,0030.63,0007.78,0004.29
2022-04-19 07:38:00,,0822.0,5.01,0.00,27.9,26.9,00.0,36.9,29.7,10.4,0000.0,0030.73,0007.72,0004.29
2022-04-19 07:39:00,,0821.9,5.00,0.00,27.9,26.8,00.0,36.9,29.7,10.5,0000.0,0031.04,0007.69,0004.29
2022-04-19 07:40:00,,0822.0,5.00,0.00,27.9,26.8,00.0,36.9,29.7,10.5,0000.0,0031.78,0007.80,0004.29
2022-04-19 07:41:00,,0821.9,4.99,0.00,27.9,26.8,00.0,36.8,29.7,10.4,0000.0,0032.78,0007.90,0004.31
2022-04-19 07:42:00,,0821.9,5.01,0.00,27.9,26.8,00.0,36.8,29.7,10.4,0000.0,0033.87,0008.03,0004.32
2022-04-19 07:43:00,,0821.8,5.00,0.00,27.9,26.8,00.0,36.8,29.6,10.4,0000.0,0034.52,0008.14,0004.35
2022-04-19 07:44:00,,0822.0,5.00,0.00,27.9,26.8,00.0,36.8,29.7,10.4,0000.0,0033.95,0008.19,0004.36
2022-04-19 07:45:00,,0821.8,4.99,0.00,27.9,26.8,00.0,36.8,29.7,10.4,0000.0,0033.15,0008.17,0004.37
2022-04-19 07:46:00,,0821.8,5.00,0.00,27.9,26.8,00.0,36.8,29.7,10.5,0000.0,0034.79,0008.21,0004.38
2022-04-19 07:47:00,,0822.1,5.01,0.00,27.9,26.8,00.0,36.8,29.7,10.5,0000.0,0035.84,0008.20,0004.40
2022-04-19 07:48:00,,0822.1,5.00,0.00,27.9,26.8,00.0,36.8,29.7,10.5,0000.0,0038.12,0008.25,0004.42
2022-04-19 07:49:00,,0822.0,5.01,0.00,27.9,26.8,00.0,36.8,29.7,10.5,0000.0,0037.51,0008.26,0004.44
2022-04-19 07:50:00,,0822.0,5.01,0.00,27.9,26.8,00.0,36.8,29.7,10.6,0000.0,0037.33,0008.30,0004.45
2022-04-19 07:51:00,,0821.8,5.00,0.00,27.9,26.8,00.0,36.8,29.7,10.6,0000.0,0036.44,0008.30,0004.47
2022-04-19 07:52:00,,0821.9,5.00,0.00,27.9,26.8,00.0,36.8,29.6,10.8,0000.0,0035.12,0008.30,0004.48
2022-04-19 07:53:00,,0821.8,5.01,0.00,27.8,26.8,00.0,36.8,29.6,10.9,0000.0,0033.21,0008.33,0004.51
2022-04-19 07:54:00,,0821.8,5.01,0.00,27.8,26.8,00.0,36.8,29.6,11.1,0000.0,0032.69,0008.28,0004.53
2022-04-19 07:55:00,,0821.8,5.00,0.00,27.8,26.8,00.0,36.8,29.6,11.1,0000.0,0032.97,0008.26,0004.55
2022-04-19 07:56:00,,0821.7,5.00,0.00,27.8,26.7,00.0,36.8,29.6,11.3,0000.0,0032.89,0008.23,0004.59
2022-04-19 07:57:00,,0821.8,5.00,0.00,27.8,26.7,00.0,36.8,29.6,11.4,0000.0,0031.79,0008.23,0004.63
2022-04-19 07:58:00,,0821.8,4.99,0.00,27.8,26.7,00.0,36.8,29.6,11.3,0000.0,0031.15,0008.20,0004.66
2022-04-19 07:59:00,,0821.8,5.01,0.00,27.8,26.7,00.0,36.8,29.5,11.3,0000.0,0030.71,0008.19,0004.71
